CW6791 Weather Reports


time (UTC)temp
C
wind
direction
speed
KPH
gust
KPH
rain 1hr
cm
rain 24hr
cm
rain mn
cm
humidity
%
barometer
mb
20260906161405 25 108 3.2 14.5 0.00 0.00 0.00 73 1020.9
20260906160823 25 113 3.2 14.5 0.00 0.00 0.00 73 1020.9
20260906155909 25 83 1.6 9.7 0.00 0.00 0.00 74 1020.9
20260906155321 25 120 3.2 9.7 0.00 0.00 0.00 72 1020.8
20260906154913 25 111 1.6 6.4 0.00 0.00 0.00 74 1020.9
20260906154346 25 93 1.6 6.4 0.00 0.00 0.00 75 1020.9
20260906153817 25 109 1.6 11.3 0.00 0.00 0.00 74 1021.0
20260906151902 24 75 1.6 9.7 0.00 0.00 0.00 78 1020.8
20260906151339 23 93 0.0 6.4 0.00 0.00 0.00 79 1020.9
20260906150818 23 74 1.6 4.8 0.00 0.00 0.00 80 1021.0
20260906145359 23 62 1.6 8.0 0.00 0.00 0.00 82 1020.7
20260906144839 23 77 1.6 6.4 0.00 0.00 0.00 83 1020.7
20260906144318 23 88 0.0 4.8 0.00 0.00 0.00 82 1020.6
20260906142902 23 92 0.0 6.4 0.00 0.00 0.00 82 1020.8
20260906142344 23 75 0.0 6.4 0.00 0.00 0.00 84 1020.9
20260906141820 22 75 0.0 6.4 0.00 0.00 0.00 86 1020.9
20260906141415 22 71 0.0 6.4 0.00 0.00 0.00 86 1021.0
20260906140859 22 77 0.0 4.8 0.00 0.00 0.00 86 1020.9
20260906140341 21 67 0.0 4.8 0.00 0.00 0.00 87 1020.9
20260906135820 21 68 0.0 4.8 0.00 0.00 0.00 89 1020.9
20260906134902 20 80 0.0 3.2 0.00 0.00 0.00 91 1021.1
20260906134341 20 81 0.0 3.2 0.00 0.00 0.00 93 1020.8
20260906131858 17 53 0.0 3.2 0.00 0.00 0.00 98 1020.7
20260906131336 17 56 0.0 3.2 0.00 0.00 0.00 98 1020.8
20260906130819 17 56 0.0 6.4 0.00 0.00 0.00 98 1020.7
20260906125402 16 46 0.0 3.2 0.00 0.00 0.00 99 1020.6
20260906124820 16 36 0.0 3.2 0.00 0.00 0.00 99 1020.6
20260906124416 16 35 1.6 4.8 0.00 0.00 0.00 99 1020.5
20260906123854 16 34 0.0 0.0 0.00 0.00 0.00 99 1020.5
20260906123338 16 34 0.0 0.0 0.00 0.00 0.00 98 1020.5
20260906122927 16 34 0.0 0.0 0.00 0.00 0.00 98 1020.4
20260906122346 16 34 0.0 0.0 0.00 0.00 0.00 98 1020.4
20260906121823 16 34 0.0 0.0 0.00 0.00 0.00 99 1020.4
20260906120410 15 34 0.0 3.2 0.00 0.00 0.00 98 1020.4
20260906115848 15 34 0.0 3.2 0.00 0.00 0.00 98 1020.3
20260906115324 15 34 0.0 3.2 0.00 0.00 0.00 98 1020.1
20260906114412 15 34 0.0 3.2 0.00 0.00 0.00 97 1020.0
20260906113903 15 34 0.0 3.2 0.00 0.00 0.00 97 1019.9
20260906113341 15 35 0.0 3.2 0.00 0.00 0.00 97 1019.7
20260906112817 15 35 0.0 3.2 0.00 0.00 0.00 97 1019.6
20260906111906 15 35 0.0 3.2 0.00 0.00 0.00 97 1019.5
20260906111330 15 34 0.0 1.6 0.00 0.00 0.00 97 1019.5
20260906110820 15 34 0.0 3.2 0.00 0.00 0.00 97 1019.4
20260906110413 15 34 0.0 3.2 0.00 0.00 0.00 97 1019.4
20260906105853 15 34 0.0 4.8 0.00 0.00 0.00 96 1019.5
20260906105331 15 34 0.0 4.8 0.00 0.00 0.00 96 1019.4
20260906104917 16 30 0.0 1.6 0.00 0.00 0.00 96 1019.4
20260906104327 16 30 0.0 1.6 0.00 0.00 0.00 96 1019.4
20260906103920 16 30 0.0 1.6 0.00 0.00 0.00 96 1019.4
20260906103338 16 30 0.0 1.6 0.00 0.00 0.00 96 1019.4
20260906102820 16 30 0.0 1.6 0.00 0.00 0.00 96 1019.4
20260906101400 16 30 0.0 3.2 0.00 0.00 0.00 95 1019.4
20260906100829 16 30 0.0 3.2 0.00 0.00 0.00 95 1019.5
20260906100317 16 30 0.0 0.0 0.00 0.00 0.00 95 1019.4
20260906095356 16 30 0.0 6.4 0.00 0.00 0.00 95 1019.3
20260906094818 16 28 1.6 6.4 0.00 0.00 0.00 95 1019.3
20260906093846 16 38 1.6 4.8 0.00 0.00 0.00 95 1019.4
20260906093426 16 61 0.0 3.2 0.00 0.00 0.00 95 1019.2
20260906092844 16 62 0.0 3.2 0.00 0.00 0.00 95 1019.1
20260906092323 16 63 0.0 4.8 0.00 0.00 0.00 95 1019.0
20260906085858 16 67 1.6 4.8 0.00 0.00 0.00 95 1019.2
20260906085339 16 67 0.0 0.0 0.00 0.00 0.00 95 1019.1
20260906084914 16 67 0.0 0.0 0.00 0.00 0.00 95 1019.1
20260906084352 16 67 0.0 0.0 0.00 0.00 0.00 95 1019.1
20260906083839 16 67 0.0 0.0 0.00 0.00 0.00 94 1019.1
20260906083319 16 67 0.0 0.0 0.00 0.00 0.00 94 1019.0
20260906082358 16 67 0.0 0.0 0.00 0.00 0.00 94 1018.9
20260906081836 16 67 0.0 0.0 0.00 0.00 0.00 94 1018.9
20260906081319 16 67 0.0 0.0 0.00 0.00 0.00 94 1018.8
20260906080402 16 67 0.0 0.0 0.00 0.00 0.00 94 1018.8
20260906075821 16 67 0.0 0.0 0.00 0.00 0.00 94 1018.8
20260906074907 16 67 0.0 0.0 0.00 0.00 0.00 94 1019.0
20260906074402 16 67 0.0 0.0 0.00 0.00 0.00 94 1019.0
20260906073843 16 67 0.0 0.0 0.00 0.00 0.00 94 1019.0
20260906072357 16 67 0.0 0.0 0.00 0.00 0.00 94 1019.0
20260906071816 16 67 0.0 0.0 0.00 0.00 0.00 93 1018.9
20260906070842 16 67 0.0 0.0 0.00 0.00 0.00 93 1018.9
20260906070406 16 67 0.0 0.0 0.00 0.00 0.00 93 1019.0
20260906065832 16 67 0.0 0.0 0.00 0.00 0.00 93 1019.0
20260906065346 16 67 0.0 0.0 0.00 0.00 0.00 93 1018.9
20260906064903 16 67 0.0 0.0 0.00 0.00 0.00 93 1018.9
20260906064317 16 67 0.0 0.0 0.00 0.00 0.00 93 1018.9
20260906063819 16 67 0.0 0.0 0.00 0.00 0.00 93 1018.9
20260906063331 16 67 0.0 0.0 0.00 0.00 0.00 93 1018.9
20260906062826 16 67 0.0 0.0 0.00 0.00 0.00 93 1018.8
20260906062320 16 67 0.0 0.0 0.00 0.00 0.00 93 1018.8
20260906061843 16 67 0.0 0.0 0.00 0.00 0.00 93 1018.8
20260906061318 16 67 0.0 0.0 0.00 0.00 0.00 93 1018.8
20260906060833 16 67 0.0 0.0 0.00 0.00 0.00 94 1018.7
20260906060326 16 67 0.0 0.0 0.00 0.00 0.00 94 1018.7
20260906055820 16 67 0.0 1.6 0.00 0.00 0.00 94 1018.5
20260906055334 16 67 0.0 1.6 0.00 0.00 0.00 93 1018.5
20260906054828 16 67 0.0 1.6 0.00 0.00 0.00 93 1018.5
20260906054343 16 67 0.0 1.6 0.00 0.00 0.00 93 1018.5
20260906053850 17 67 0.0 0.0 0.00 0.00 0.00 93 1018.4
20260906053326 17 67 0.0 0.0 0.00 0.00 0.00 93 1018.4
20260906052821 17 67 0.0 0.0 0.00 0.00 0.00 92 1018.2
20260906052345 17 67 0.0 0.0 0.00 0.00 0.00 92 1018.2
20260906051839 17 67 0.0 0.0 0.00 0.00 0.00 92 1018.1
20260906051324 17 67 0.0 0.0 0.00 0.00 0.00 92 1018.2
20260906050832 17 67 0.0 0.0 0.00 0.00 0.00 92 1018.2
20260906050327 17 67 0.0 0.0 0.00 0.00 0.00 93 1018.2
20260906045934 17 67 0.0 0.0 0.00 0.00 0.00 93 1018.2
20260906045348 17 67 0.0 0.0 0.00 0.00 0.00 93 1018.1
20260906044823 17 67 0.0 0.0 0.00 0.00 0.00 93 1018.1
20260906043359 17 68 0.0 3.2 0.00 0.00 0.00 93 1018.0
20260906042843 17 68 0.0 0.0 0.00 0.00 0.00 93 1018.0
20260906042320 17 68 0.0 0.0 0.00 0.00 0.00 93 1018.0
20260906040358 17 68 0.0 0.0 0.00 0.00 0.00 94 1017.9
20260906035823 17 68 0.0 0.0 0.00 0.00 0.00 94 1017.9
20260906034905 17 68 0.0 0.0 0.00 0.00 0.00 95 1018.0
20260906034321 17 68 0.0 0.0 0.00 0.00 0.00 95 1017.9
20260906032341 17 68 0.0 0.0 0.00 0.00 0.00 95 1017.8
20260906031820 17 68 0.0 0.0 0.00 0.00 0.00 95 1017.8
20260906030909 17 68 0.0 0.0 0.00 0.00 0.00 94 1017.7
20260906030339 17 68 0.0 0.0 0.00 0.00 0.00 94 1017.7
20260906025817 17 68 0.0 0.0 0.00 0.00 0.00 94 1017.7
20260906025413 17 68 0.0 0.0 0.00 0.00 0.00 94 1017.7
20260906024846 17 68 0.0 0.0 0.00 0.00 0.00 93 1017.7
20260906024319 17 68 0.0 0.0 0.00 0.00 0.00 93 1017.8
20260906023910 17 68 0.0 0.0 0.00 0.00 0.00 93 1017.7
20260906023347 17 68 0.0 0.0 0.00 0.00 0.00 92 1017.7
20260906022826 18 68 0.0 0.0 0.00 0.00 0.00 92 1017.6
20260906020902 18 68 0.0 0.0 0.00 0.00 0.00 91 1017.5
20260906020339 18 68 0.0 0.0 0.00 0.00 0.00 91 1017.4
20260906015409 18 68 0.0 0.0 0.00 0.00 0.00 90 1017.5
20260906014849 19 68 0.0 0.0 0.00 0.00 0.00 90 1017.5
20260906014428 19 68 0.0 0.0 0.00 0.00 0.00 89 1017.5
20260906013848 19 68 0.0 0.0 0.00 0.00 0.00 89 1017.4
20260906013322 20 68 0.0 0.0 0.00 0.00 0.00 88 1017.4
20260906010857 20 68 0.0 4.8 0.00 0.00 0.00 86 1017.5
20260906010317 20 68 0.0 4.8 0.00 0.00 0.00 85 1017.3
20260906005401 20 69 1.6 4.8 0.00 0.00 0.00 84 1017.3
20260906004843 20 69 1.6 3.2 0.00 0.00 0.00 84 1017.3
20260906004326 21 69 1.6 3.2 0.00 0.00 0.00 83 1017.2
20260906001858 21 63 0.0 6.4 0.00 0.00 0.00 81 1017.1
20260906001341 21 63 1.6 6.4 0.00 0.00 0.00 80 1017.0
20260906000818 22 63 0.0 6.4 0.00 0.00 0.00 80 1017.1
20260905235912 22 80 1.6 8.0 0.00 0.00 0.00 79 1017.0
20260905235356 22 47 1.6 9.7 0.00 0.00 0.00 78 1017.0
20260905234841 22 76 3.2 14.5 0.00 0.00 0.00 78 1017.1
20260905234414 22 79 1.6 14.5 0.00 0.00 0.00 77 1017.1
20260905233854 22 33 4.8 14.5 0.00 0.00 0.00 77 1017.1
20260905233332 22 91 4.8 14.5 0.00 0.00 0.00 77 1017.1
20260905230901 23 57 3.2 16.1 0.00 0.00 0.00 75 1017.5
20260905230336 23 343 4.8 16.1 0.00 0.00 0.00 74 1017.4
20260905225915 23 38 6.4 14.5 0.00 0.00 0.00 74 1017.3
20260905225347 23 95 1.6 12.9 0.00 0.00 0.00 74 1017.3
20260905224821 23 55 1.6 14.5 0.00 0.00 0.00 74 1017.3
20260905223407 23 24 4.8 12.9 0.00 0.00 0.00 73 1017.2
20260905222847 23 83 1.6 14.5 0.00 0.00 0.00 74 1017.2
20260905222319 23 55 3.2 14.5 0.00 0.00 0.00 74 1017.0
20260905221858 23 56 4.8 14.5 0.00 0.00 0.00 72 1017.0
20260905221317 24 69 4.8 16.1 0.00 0.00 0.00 71 1016.9
20260905220411 24 59 3.2 14.5 0.00 0.00 0.00 72 1017.0
20260905215850 24 31 3.2 16.1 0.00 0.00 0.00 71 1016.9
20260905215321 25 97 4.8 16.1 0.00 0.00 0.00 70 1017.0
20260905213902 25 84 6.4 17.7 0.00 0.00 0.00 69 1017.1
20260905213341 25 52 4.8 14.5 0.00 0.00 0.00 72 1017.1
20260905212819 25 360 3.2 14.5 0.00 0.00 0.00 71 1017.2
20260905211402 25 82 3.2 16.1 0.00 0.00 0.00 71 1017.2
20260905210841 25 42 6.4 16.1 0.00 0.00 0.00 71 1017.1
20260905210359 25 55 3.2 16.1 0.00 0.00 0.00 70 1017.2
20260905205839 25 26 6.4 16.1 0.00 0.00 0.00 67 1017.1
20260905205318 26 63 6.4 17.7 0.00 0.00 0.00 67 1017.0
20260905203403 25 44 6.4 14.5 0.00 0.00 0.00 70 1017.0
20260905202844 26 32 6.4 12.9 0.00 0.00 0.00 69 1016.9
20260905202321 26 69 3.2 16.1 0.00 0.00 0.00 71 1016.9
20260905201404 25 104 4.8 16.1 0.00 0.00 0.00 73 1016.8
20260905200841 25 9 6.4 16.1 0.00 0.00 0.00 75 1016.8
20260905200321 25 46 3.2 16.1 0.00 0.00 0.00 73 1016.9
20260905194856 25 68 3.2 14.5 0.00 0.00 0.00 76 1017.1
20260905194333 25 57 6.4 14.5 0.00 0.00 0.00 76 1017.1
20260905193817 25 117 3.2 17.7 0.00 0.00 0.00 77 1017.0
20260905192858 26 123 1.6 14.5 0.00 0.00 0.00 78 1017.1
20260905192340 26 63 6.4 14.5 0.00 0.00 0.00 77 1017.2
20260905191816 26 78 3.2 9.7 0.00 0.00 0.00 77 1017.0
20260905190358 26 45 6.4 14.5 0.00 0.00 0.00 77 1017.0
20260905185819 25 87 6.4 14.5 0.00 0.00 0.00 79 1017.0
20260905185410 25 47 1.6 20.9 0.00 0.00 0.00 79 1017.1
20260905184840 25 37 8.0 20.9 0.00 0.00 0.00 79 1017.2
20260905184415 25 57 3.2 14.5 0.00 0.00 0.00 80 1017.2
20260905183351 24 63 3.2 16.1 0.00 0.00 0.00 82 1017.3
20260905182825 23 86 4.8 12.9 0.00 0.00 0.00 84 1017.3
20260905182410 23 32 6.4 16.1 0.00 0.00 0.00 83 1017.3
20260905181850 23 28 6.4 16.1 0.00 0.00 0.00 83 1017.1
20260905181325 23 75 3.2 12.9 0.00 0.00 0.00 85 1017.2
20260905180407 22 38 3.2 14.5 0.00 0.00 0.00 85 1017.2
20260905175841 22 55 1.6 17.7 0.00 0.00 0.00 86 1017.2
20260905175414 22 36 6.4 17.7 0.00 0.00 0.00 86 1017.2
20260905174901 22 38 4.8 16.1 0.00 0.00 0.00 86 1017.1
20260905174319 22 82 3.2 9.7 0.00 0.00 0.00 86 1017.2
20260905171859 22 69 6.4 19.3 0.00 0.00 0.00 86 1017.3
20260905171338 22 88 1.6 14.5 0.00 0.00 0.00 87 1017.3
20260905170819 22 49 6.4 16.1 0.00 0.00 0.00 87 1017.4
20260905164910 22 31 4.8 19.3 0.00 0.00 0.00 88 1017.6
20260905164348 22 69 3.2 19.3 0.00 0.00 0.00 89 1017.5
20260905163826 22 75 8.0 19.3 0.00 0.00 0.00 89 1017.6
20260905162903 22 65 6.4 14.5 0.00 0.00 0.00 90 1017.4
20260905162341 21 82 4.8 14.5 0.00 0.00 0.00 90 1017.4
20260905161818 21 74 3.2 14.5 0.00 0.00 0.00 90 1017.4